Tracking 34406 objects as of 15-Jun-2026
HD Live streaming from Space Station
objects crossing your sky now

THORAD AGENA D DEB

Track THORAD AGENA D DEB now!
10-day predictions


NORAD ID: 42514
Int'l Code: 1970-025RU
Perigee: 1,040.6 km
Apogee: 1,317.7 km
Inclination: 99.4 °
Period: 108.8 minutes
Semi major axis: 7550 km
RCS: Unknown
Launch date: April 8, 1970
Source: United States (US)
Launch site: AIR FORCE WESTERN TEST RANGE (AFWTR)

Note: This is SATELLITE DEBRIS
Your satellite tracking list
Your tracking list is empty




NASA's NSSDC Master Catalog

Two Line Element Set (TLE):
1 42514U 70025RU  26143.61699952  .00000192  00000-0  49802-3 0  9991
2 42514  99.3897 268.7548 0183488  10.7434 349.7526 13.23335400603351
Source of the keplerian elements: AFSPC